Theta_e
331 330 324 325 330 331 330 329 328 329 328 328 327 327 328 331 332 338 335 335 333 328 326 328 332 332 328 327 325 322 313 312 313 316 320 328 330 330 331 331 324 315 319 315 315 315 315 315 315
331 330 326 327 332 333 329 327 329 329 329 329 327 329 329 333 335 333 335 335 332 333 325 327 332 334 328 327 324 320 313 312 314 319 321 326 330 329 330 329 322 322 326 316 315 315 315 315 316
330 330 326 330 332 329 329 328 328 329 329 330 330 329 331 334 334 334 336 334 334 334 329 328 332 334 329 330 323 318 314 313 314 318 320 322 327 329 325 329 327 323 326 317 314 315 315 316 316
331 331 328 330 333 327 327 327 329 329 329 330 330 330 333 333 334 334 330 334 333 333 336 329 332 332 329 330 323 317 315 317 323 315 318 316 320 329 325 329 328 325 319 315 314 315 315 316 316
332 332 333 333 330 327 327 328 330 329 329 329 329 328 334 332 332 331 329 334 330 330 332 332 332 331 329 330 325 320 320 326 322 318 313 313 314 328 326 329 328 326 318 314 314 314 315 315 316
332 332 335 336 330 326 328 329 329 329 328 329 329 328 334 327 327 330 331 333 331 329 325 327 333 332 330 328 326 320 319 324 322 316 313 313 313 322 328 328 328 327 315 314 314 314 314 315 316
332 334 337 335 334 328 325 327 329 329 329 330 329 329 333 331 328 326 326 332 330 330 329 324 330 333 330 328 328 324 320 327 327 320 314 313 313 315 328 328 323 326 322 315 314 314 314 314 315
331 332 334 334 334 333 325 327 326 326 329 329 329 329 331 333 325 326 327 330 329 325 330 327 332 331 332 329 327 325 320 322 324 315 314 313 313 312 317 321 321 317 321 316 315 315 314 314 315
330 332 333 333 334 333 325 324 324 324 324 328 330 331 332 328 324 324 325 327 325 326 323 328 331 331 331 331 328 325 322 318 317 313 312 313 313 313 312 315 318 316 316 316 316 315 315 314 314
331 332 332 330 331 332 327 327 327 325 325 325 326 329 329 328 327 324 322 322 321 319 317 331 330 335 333 335 331 325 320 317 314 312 311 313 314 314 313 313 314 314 315 316 316 316 315 315 315
328 331 329 330 331 331 330 328 328 329 328 328 327 328 328 325 329 328 325 322 318 317 314 316 330 326 329 335 335 324 322 317 314 311 311 313 321 321 315 314 313 313 314 315 315 316 315 316 318
326 325 325 326 327 327 327 328 329 329 329 329 329 329 329 327 328 330 330 328 327 322 318 314 317 322 321 324 330 321 320 317 314 311 311 314 319 316 317 314 313 313 313 314 314 315 315 315 316
323 325 325 323 325 327 327 327 328 328 329 328 328 328 328 329 327 329 331 332 331 328 324 320 316 319 318 317 317 322 321 319 316 314 313 314 316 314 314 313 313 313 313 313 314 314 315 314 314
324 325 325 321 323 325 326 325 326 327 326 326 326 326 326 327 326 325 328 331 332 331 328 324 321 316 318 316 316 318 321 317 318 317 313 313 314 313 313 314 314 314 313 313 313 314 314 314 314
324 326 325 324 324 324 324 324 324 324 324 323 324 325 325 326 326 326 327 326 329 332 331 328 325 321 318 317 316 317 320 318 315 314 313 312 312 313 313 313 314 314 314 314 314 314 314 315 315
324 324 325 320 321 324 324 322 320 321 322 322 322 324 325 325 326 326 325 327 327 330 332 330 328 326 322 319 316 316 316 316 315 315 314 313 312 312 313 313 313 313 314 314 314 314 314 314 314
326 325 324 323 321 322 325 326 323 322 322 323 323 324 324 324 325 326 325 324 326 327 331 332 330 328 326 322 319 317 316 315 315 315 314 314 313 312 312 312 313 313 314 313 314 314 314 314 314
324 324 322 322 322 322 323 324 323 324 323 323 323 325 325 325 325 325 325 326 325 326 328 331 332 330 328 327 323 320 318 317 316 315 315 314 314 314 313 313 313 314 314 314 314 314 314 314 314
321 321 321 321 320 322 322 321 321 321 321 322 322 323 324 324 324 325 325 324 325 324 325 328 330 331 330 329 327 324 321 319 317 316 315 315 315 315 314 314 314 314 314 315 315 315 314 314 315
322 322 321 320 320 320 319 319 318 319 319 320 321 322 322 323 323 323 324 324 324 325 324 324 327 328 331 330 328 326 325 322 320 318 316 316 315 315 315 315 315 314 315 315 316 316 316 315 316
322 322 322 320 318 318 318 318 317 317 318 319 319 320 320 321 322 322 323 323 324 323 325 324 324 326 324 326 329 328 327 326 324 321 320 318 316 316 316 316 316 315 315 315 315 316 316 317 317
320 317 318 319 320 319 317 318 317 316 316 316 318 318 319 320 321 321 321 322 322 322 323 325 324 324 326 324 327 328 327 327 324 322 321 320 320 317 316 316 316 316 316 316 316 316 316 318 318
318 317 319 319 318 317 317 319 316 316 316 316 317 319 319 319 319 320 321 321 322 323 323 323 324 324 325 327 326 326 327 326 326 326 323 321 320 321 319 317 316 316 316 316 316 316 316 317 318
318 319 319 319 319 320 318 317 316 315 316 320 319 320 320 321 320 321 322 321 321 322 322 324 324 323 324 327 327 327 326 325 327 327 326 324 322 320 320 320 320 318 317 317 317 317 317 317 317
319 319 316 320 318 318 316 317 316 316 317 318 317 320 320 320 320 320 318 315 314 314 315 322 324 324 324 326 327 327 328 326 325 327 326 326 325 324 322 321 320 320 320 320 318 318 318 318 318
318 318 318 318 320 318 315 319 318 318 318 320 320 320 319 317 314 313 315 314 315 316 315 311 317 320 323 325 327 328 328 328 327 327 327 326 325 324 324 324 323 322 321 321 321 320 319 319 319
317 318 316 318 314 319 319 319 317 317 318 318 319 319 318 316 315 314 315 315 315 316 316 316 313 314 320 322 326 328 329 329 328 328 328 327 326 325 324 324 324 324 324 323 323 322 321 321 321
315 316 318 318 318 315 313 312 315 318 318 318 317 318 315 314 314 316 316 315 315 315 315 316 316 314 310 313 318 323 328 329 329 329 329 328 327 327 326 325 324 324 325 325 325 324 323 323 323
315 318 317 316 315 316 315 314 314 313 316 315 314 315 314 314 316 317 316 316 315 315 316 315 315 316 313 309 312 315 318 323 328 329 329 329 328 327 327 327 327 326 327 326 326 326 325 325 325
314 315 316 316 316 315 316 317 313 312 314 315 315 316 316 317 317 317 316 316 316 316 315 315 314 315 315 313 308 312 313 316 320 323 325 327 328 325 327 328 329 328 328 327 327 326 325 325 325
Wind_Speed
17 14 10 9 1 1 5 3 3 4 6 8 8 5 5 17 6 4 14 9 14 12 15 13 11 9 7 7 7 6 6 6 8 13 13 16 17 15 13 9 9 14 16 17 17 18 18 19 21
18 15 7 6 2 2 5 2 10 8 8 6 3 6 2 6 9 12 15 15 16 11 15 15 13 10 8 7 6 6 6 6 9 12 14 16 17 13 15 10 8 15 15 16 16 16 17 18 19
18 9 6 3 2 6 5 6 8 7 7 2 1 6 6 5 8 11 6 20 17 11 12 15 13 11 8 8 7 6 6 6 8 11 12 13 16 13 9 12 10 13 13 14 14 15 16 17 17
14 7 6 2 7 6 7 6 14 7 2 3 3 7 7 5 4 8 15 20 17 15 14 13 14 12 10 8 7 7 7 7 9 9 9 10 13 13 9 12 8 10 11 12 13 13 14 14 14
12 7 4 3 7 6 6 4 8 5 6 6 2 4 6 2 4 7 17 18 18 19 14 14 15 13 10 9 7 6 6 7 6 4 6 9 11 13 10 12 9 7 10 10 11 11 11 12 12
7 2 4 3 6 6 6 3 3 7 4 5 2 2 4 1 4 11 16 16 14 18 15 16 16 13 11 10 9 7 6 6 5 5 6 8 9 13 11 11 11 8 9 10 10 10 9 10 10
7 4 7 7 3 6 5 1 4 4 9 5 2 3 6 4 3 10 15 14 13 16 14 19 16 15 13 11 10 7 7 6 5 5 7 7 8 10 11 10 10 10 7 9 8 8 7 8 8
5 3 7 7 5 5 6 6 3 4 2 4 3 1 7 7 6 10 17 18 15 16 14 13 18 15 16 15 13 11 9 9 9 5 8 8 7 8 11 11 9 9 9 8 7 6 6 5 6
4 3 6 9 7 4 10 4 3 3 4 2 2 2 7 5 6 11 16 16 16 15 18 14 17 17 16 16 16 14 12 12 13 11 10 9 8 8 8 11 10 10 9 8 7 6 5 4 3
6 4 10 13 9 3 13 6 6 4 6 5 5 7 7 7 8 11 14 18 19 20 19 18 16 19 19 17 17 17 15 15 14 14 12 12 10 9 10 11 11 12 11 10 8 7 6 4 3
6 7 13 14 14 5 8 6 7 7 7 12 7 17 10 10 12 14 15 16 17 19 19 21 23 19 21 21 19 19 19 18 17 16 14 15 12 13 13 12 12 13 13 12 10 9 7 6 3
11 17 16 20 12 5 5 9 12 12 13 15 15 12 12 12 14 16 18 19 21 20 19 23 24 24 21 22 22 19 20 19 19 17 16 17 17 18 17 16 14 14 14 13 13 12 11 9 9
11 10 19 18 12 6 9 13 13 19 16 18 18 18 17 14 14 16 18 20 21 23 22 22 26 27 26 24 24 22 22 22 20 19 19 19 20 20 17 18 16 16 15 15 14 13 13 11 11
4 7 20 21 10 9 9 16 17 23 18 19 22 24 22 22 20 20 21 23 27 28 27 25 26 27 30 28 26 25 26 24 22 22 21 21 22 21 20 20 19 18 18 17 16 15 14 13 13
7 6 8 13 11 10 10 11 12 32 26 25 27 24 22 24 21 25 24 26 27 30 30 29 29 28 31 31 29 29 28 27 25 26 24 22 23 22 22 22 22 21 20 18 18 17 17 16 15
2 6 7 5 18 14 9 9 10 23 24 30 29 29 22 22 24 23 21 23 24 27 31 32 33 32 33 34 32 33 31 30 29 27 27 25 24 25 25 25 24 23 23 22 21 20 20 19 17
7 5 12 10 13 10 10 4 11 13 18 16 16 18 21 21 20 20 19 22 25 26 28 32 35 37 35 36 35 34 33 34 33 30 30 29 27 27 28 27 26 25 25 25 23 23 22 21 19
6 9 9 11 9 12 12 12 11 24 28 22 23 23 20 23 24 22 21 21 23 25 27 31 33 38 38 38 38 37 37 38 36 34 34 31 31 30 30 29 28 27 28 28 26 25 24 23 20
10 12 12 9 14 1 7 11 11 18 22 24 24 27 28 31 30 27 26 26 25 27 30 32 33 37 41 40 42 43 43 42 41 39 36 36 35 34 33 33 32 31 32 30 28 27 26 26 22
13 12 13 11 5 1 8 19 17 22 26 31 27 27 29 28 28 31 27 26 27 29 31 36 38 38 42 43 44 46 44 44 41 40 39 40 39 38 37 37 36 36 35 33 32 30 30 29 25
16 14 9 10 12 6 8 18 16 20 31 33 32 33 37 37 35 32 32 29 26 29 33 35 38 41 42 44 44 45 42 44 45 45 46 44 44 43 41 40 38 39 39 38 36 34 34 33 31
12 8 12 14 5 4 4 8 14 13 13 10 22 25 27 29 33 35 33 29 28 29 29 34 36 37 43 44 46 48 50 50 47 46 46 45 45 47 46 44 43 42 42 42 41 38 37 36 35
8 6 8 8 5 9 11 8 6 5 9 11 10 19 21 20 22 17 20 19 18 19 24 32 35 39 41 46 48 49 51 50 49 49 47 45 45 47 49 49 48 46 45 44 46 43 41 41 40
5 4 3 3 2 6 7 9 7 7 8 2 10 15 6 4 8 7 8 13 17 20 22 25 32 38 42 45 48 51 52 51 51 51 51 49 46 45 45 47 50 50 48 47 48 48 45 44 44
9 7 2 4 4 7 6 8 18 8 12 8 11 12 6 10 8 6 7 10 10 12 18 24 28 34 41 46 48 50 52 51 52 53 52 51 51 50 48 47 49 51 51 51 50 50 49 48 48
13 9 4 6 5 2 9 9 8 6 17 13 9 6 9 6 5 7 6 12 17 18 15 13 26 30 33 41 45 46 47 51 51 55 53 53 54 53 50 49 49 50 50 51 51 51 51 50 50
10 14 13 5 3 1 4 7 10 14 7 13 14 14 5 2 5 5 13 15 23 17 16 18 16 21 26 34 39 42 45 47 50 52 54 53 54 53 52 48 48 48 50 52 52 52 52 52 51
8 6 4 4 5 4 6 6 10 5 11 11 9 11 10 2 2 9 14 19 22 22 20 20 19 17 17 23 34 39 41 45 47 48 52 53 53 53 52 49 48 48 48 49 50 51 52 52 52
12 7 6 6 5 4 2 5 7 13 2 5 9 12 6 5 11 14 19 22 23 20 22 25 22 20 19 20 23 33 37 41 42 44 48 53 51 50 50 49 46 49 48 47 47 48 49 51 50
16 18 12 4 5 4 2 8 6 6 7 13 10 5 2 9 15 23 24 24 25 25 27 25 24 21 19 19 21 26 31 34 39 40 42 45 47 39 44 48 48 51 52 48 46 46 48 50 52
Wind_Direction
349 339 352 310 333 145 79 66 78 86 74 47 51 30 26 45 16 117 138 148 177 180 166 161 155 147 129 124 116 104 96 112 121 114 113 116 108 110 100 86 91 99 99 99 97 94 94 93 91
347 348 336 279 243 117 81 88 78 62 76 43 14 330 37 84 57 131 159 150 152 182 168 166 159 151 134 128 124 116 109 122 123 116 119 122 113 113 116 103 98 100 99 102 100 99 97 94 92
349 321 301 322 296 29 95 86 104 93 99 92 90 48 13 73 72 127 191 151 157 177 164 168 163 158 147 138 131 116 107 123 126 122 118 122 123 119 135 111 104 108 107 106 104 102 97 96 95
330 338 249 260 76 58 46 78 117 131 103 91 2 89 84 81 126 194 156 156 160 147 190 171 170 165 157 146 130 121 118 115 124 125 129 130 137 124 131 117 119 111 114 112 105 102 101 100 99
330 275 274 266 79 79 59 51 149 157 126 124 2 94 98 52 156 168 157 162 168 163 191 186 177 173 166 154 144 134 129 132 133 131 139 140 145 133 135 128 134 127 121 115 108 107 105 104 101
309 258 282 300 102 102 66 35 212 141 86 113 191 130 115 181 176 164 156 162 178 167 191 184 179 179 177 169 159 152 162 165 158 155 155 151 152 146 144 149 147 145 132 124 119 115 111 109 105
280 299 282 303 252 154 125 205 238 188 155 104 78 340 129 118 171 165 161 161 182 180 200 183 185 185 188 182 178 171 177 183 191 190 170 167 162 159 158 161 168 151 154 135 129 122 118 116 113
301 295 281 293 294 318 119 157 44 301 48 129 174 259 147 204 166 171 166 178 190 195 190 196 186 193 193 192 192 189 190 196 215 221 193 184 179 181 179 178 180 171 167 156 153 135 127 125 119
289 268 253 257 239 217 136 173 178 282 292 169 172 1 162 185 170 174 178 190 188 208 185 207 192 198 200 208 203 203 201 207 220 230 216 198 196 199 195 193 191 189 181 180 178 162 151 143 133
228 235 249 271 304 344 155 192 168 187 221 231 204 232 199 208 194 189 195 204 202 209 199 191 210 202 197 203 211 210 214 216 223 232 221 203 209 211 206 206 204 201 194 194 196 188 181 178 164
213 242 272 273 321 310 326 177 226 259 265 255 217 214 220 210 209 210 212 219 223 221 212 205 208 221 208 210 210 216 219 221 224 227 217 203 197 228 223 216 215 212 207 206 209 208 202 203 204
250 270 268 280 327 358 301 291 279 253 249 266 299 302 230 222 227 223 226 221 219 224 229 219 214 218 224 213 217 219 228 227 228 229 216 207 207 223 229 227 225 222 219 217 217 218 219 220 214
246 255 284 255 284 291 288 281 282 273 263 271 277 275 274 247 251 249 246 238 232 231 228 228 222 215 226 227 223 221 223 233 230 227 227 218 219 228 223 228 226 226 224 225 225 226 228 232 233
177 270 254 271 254 266 267 267 269 260 258 266 262 259 257 255 248 252 243 235 231 239 235 229 227 224 224 230 225 222 222 230 227 230 230 227 227 229 227 227 230 230 231 227 231 232 238 238 240
256 281 275 266 267 246 254 260 235 256 256 257 262 266 259 256 249 246 250 247 239 237 243 237 232 225 225 231 226 226 223 228 230 229 232 231 228 229 231 230 233 234 233 233 231 231 236 241 244
225 248 262 228 233 223 187 254 269 255 248 241 249 250 254 262 251 254 246 245 248 245 241 240 239 232 227 228 228 228 228 228 233 230 231 233 228 228 232 233 234 235 235 236 235 234 238 241 245
202 238 220 260 237 217 184 266 277 274 277 278 268 253 255 269 261 255 252 250 243 246 243 241 238 239 233 228 228 230 231 231 232 231 231 232 232 229 232 235 237 235 237 239 238 238 241 243 243
208 222 257 274 252 204 233 246 244 273 284 273 275 275 269 262 266 266 258 249 245 237 240 245 244 239 238 232 228 229 230 232 233 233 233 234 232 231 232 233 236 236 237 239 237 238 240 243 245
255 231 240 241 236 288 266 267 272 278 272 272 268 266 257 260 266 267 263 258 249 242 235 238 242 243 239 234 227 228 229 230 234 234 234 235 234 232 232 235 235 236 238 241 241 241 240 240 235
249 261 271 271 287 149 282 277 270 261 260 261 264 268 268 265 260 262 260 259 253 250 246 238 239 242 243 239 237 235 235 237 240 240 237 233 235 235 234 235 236 236 238 240 239 238 239 241 235
226 230 261 296 303 322 317 290 256 250 250 251 254 255 257 257 260 260 260 259 263 263 251 250 247 240 242 245 241 235 235 240 239 239 239 235 235 238 238 238 237 238 239 242 242 240 239 240 240
237 215 244 257 295 275 314 288 289 297 282 256 251 256 253 253 255 255 257 264 260 257 263 256 252 247 244 243 240 238 237 237 243 243 243 240 236 239 241 243 241 240 240 243 245 243 242 242 239
243 226 258 248 272 282 251 271 278 262 297 278 254 239 249 259 259 261 266 271 273 267 262 256 251 249 248 244 245 244 242 243 246 247 248 246 241 238 239 242 244 242 241 244 246 245 242 243 243
191 230 192 284 38 250 211 226 246 228 248 87 15 322 319 339 266 240 249 278 282 273 272 258 252 249 247 244 246 245 246 246 243 243 245 248 247 243 240 241 243 244 244 244 246 247 246 246 247
196 146 156 214 208 237 199 193 244 300 296 277 300 313 353 321 314 337 317 318 347 337 276 259 255 248 246 244 245 248 246 248 248 246 247 247 248 248 245 242 241 244 246 245 244 247 246 247 247
189 180 181 203 190 268 200 225 246 213 252 259 260 281 348 57 88 95 72 352 355 348 344 313 254 257 248 246 245 247 249 246 249 249 249 252 253 254 255 251 246 247 247 247 246 246 248 247 249
188 211 220 332 112 174 231 285 299 281 233 245 261 283 145 65 81 30 348 331 335 339 331 336 332 269 253 243 242 245 248 248 248 247 250 250 254 255 255 255 254 251 250 249 247 244 246 246 248
218 136 167 204 203 230 256 268 246 304 232 222 252 182 110 42 291 331 338 327 333 328 329 329 324 317 285 262 245 238 245 250 251 251 248 250 251 253 254 256 257 257 252 249 247 245 245 245 247
205 179 241 168 205 196 274 250 214 226 322 132 82 74 59 335 334 339 333 330 330 330 325 319 320 316 315 296 268 248 239 243 250 253 254 253 256 257 258 257 257 259 254 251 247 246 243 241 242
218 221 202 192 178 233 3 262 295 346 67 94 90 88 45 349 333 327 332 331 330 326 318 314 312 309 311 311 290 267 255 245 244 251 256 256 253 258 258 256 253 256 255 253 250 247 244 243 243